Home   Weather   Bratislava   Past weeks
Flag for Slovakia

Past Weather in Bratislava, Slovakia — Yesterday and Last 2 Weeks

Now
32 °F

Clear.


Feels Like: 32 °F
Forecast: 33 / 25 °F
Wind: 2 mph from South

Location: Bratislava Ivanka

Current Time: Jan 20, 2020 at 9:20:20 pm

Latest Report: Jan 20, 2020 at 8:30 pm


Visibility: 10 mi

Pressure: 30.89 "Hg

Humidity: 87%

Dew Point: 28 °F

Location of BratislavaLocation

Past Weather in Bratislava — Graph

°F

Bratislava Temperature Yesterday

Maximum temperature yesterday: 39 °F (at 2:00 pm)
Minimum temperature yesterday: 32 °F (at 12:00 am)
Average temperature yesterday: 36 °F

High & Low Weather Summary for the Past Weeks

 TemperatureHumidityPressure
High45 °F (Jan 11, 10:30 am)100% (Jan 10, 10:30 pm)30.89 "Hg (Jan 10, 10:30 pm)
Low21 °F (Jan 6, 5:30 am)56% (Jan 6, 12:30 pm)30.15 "Hg (Jan 10, 3:00 am)
Average32 °F90%30.39 "Hg
* Reported Jan 5 8:00 pm — Jan 20 8:00 pm, Bratislava. Weather by CustomWeather, © 2020

Note: Actual official high and low records may vary slightly from our data, if they occured in-between our weather recording intervals... More about our weather records

Bratislava Weather History for the Previous 24 Hours

Scroll right to see more
 ConditionsComfort  
Time TempWeatherWind HumidityBarometerVisibility
8:00 pm
Mon, Jan 20
30 °FClear.2 mph80%30.89 "Hg10 mi
7:30 pm34 °FClear.1 mph81%30.89 "Hg10 mi
7:00 pm34 °FClear.2 mph81%30.89 "Hg10 mi
6:30 pm36 °FClear.5 mph75%30.89 "Hg10 mi
6:00 pm36 °FPassing clouds.3 mph81%30.86 "HgN/A
5:30 pm37 °FPassing clouds.6 mph75%30.86 "HgN/A
5:00 pm36 °FPassing clouds.6 mph81%30.86 "HgN/A
4:30 pm37 °FPassing clouds.6 mph75%30.86 "HgN/A
4:00 pm39 °FPassing clouds.8 mph75%30.86 "HgN/A
3:30 pm41 °FPassing clouds.9 mph70%30.86 "HgN/A
3:00 pm41 °FPassing clouds.10 mph70%30.86 "HgN/A
2:30 pm41 °FPassing clouds.10 mph76%30.86 "HgN/A
2:00 pm41 °FPassing clouds.10 mph76%30.86 "HgN/A
1:30 pm41 °FScattered clouds.13 mph76%30.86 "HgN/A
1:00 pm41 °FScattered clouds.10 mph76%30.86 "HgN/A
12:30 pm41 °FPassing clouds.10 mph76%30.83 "HgN/A
12:00 pm41 °FPassing clouds.9 mph76%30.83 "HgN/A
11:30 am41 °FPassing clouds.9 mph76%30.83 "HgN/A
11:00 am41 °FPassing clouds.9 mph76%30.83 "HgN/A
10:30 am41 °FPassing clouds.6 mph76%30.83 "HgN/A
10:00 am39 °FPassing clouds.7 mph81%30.83 "HgN/A
9:30 am37 °FPassing clouds.9 mph87%30.83 "HgN/A
9:00 am37 °FPassing clouds.8 mph81%30.80 "HgN/A
8:30 am36 °FPassing clouds.9 mph87%30.80 "HgN/A
8:00 am36 °FScattered clouds.9 mph87%30.77 "HgN/A
7:30 am36 °FPassing clouds.7 mph87%30.77 "HgN/A
7:00 am36 °FPassing clouds.7 mph87%30.74 "HgN/A
6:30 am36 °FPartly cloudy.6 mph87%30.74 "HgN/A
6:00 am36 °FPassing clouds.5 mph93%30.74 "HgN/A
5:30 am36 °FPassing clouds.8 mph93%30.72 "HgN/A
5:00 am36 °FPassing clouds.7 mph87%30.72 "HgN/A
4:30 am36 °FPassing clouds.7 mph87%30.72 "HgN/A
4:00 am36 °FPassing clouds.8 mph87%30.72 "HgN/A
3:30 am36 °FPassing clouds.7 mph87%30.72 "HgN/A
3:00 am36 °FPartly cloudy.6 mph87%30.69 "HgN/A
2:30 am36 °FLight snow. Passing clouds.8 mph87%30.69 "HgN/A
2:00 am36 °FLight snow. Passing clouds.7 mph87%30.69 "HgN/A
1:30 am36 °FLight rain. Mostly cloudy.6 mph87%30.69 "HgN/A
1:00 am37 °FLight rain. Mostly cloudy.3 mph81%30.66 "HgN/A
12:30 am37 °FLight rain. Passing clouds.7 mph81%30.66 "HgN/A
12:00 am37 °FPassing clouds.9 mph81%30.66 "HgN/A
11:30 pm
Sun, Jan 19
37 °FLight rain. Passing clouds.10 mph81%30.63 "HgN/A
11:00 pm36 °FLight rain. Passing clouds.7 mph93%30.63 "HgN/A
10:30 pm36 °FLight rain. Mostly cloudy.10 mph87%30.60 "HgN/A
10:00 pm37 °FLight rain. Mostly cloudy.10 mph87%30.60 "HgN/A
9:30 pm36 °FLight rain. Mostly cloudy.10 mph87%30.60 "HgN/A
9:00 pm36 °FLight rain. Mostly cloudy.13 mph87%30.60 "HgN/A
Weather by CustomWeather, © 2020

See weather overview

Advertising